This is the latest recevied weather packets stored in our database for station/object AH6GR. If no packets are shown the sender has not sent any weather packets the latest 10 day(s).
| Time | Temp. | Humidity | Pressure | Rain* | Wind** | Luminosity | Snow |
|---|---|---|---|---|---|---|---|
| 1778204756 | 22.78° C | 85% | 1016.1 hPa | 0 mm | - | - | - |
| 1778204437 | 23.33° C | 84% | 1017 hPa | 0 mm | - | - | - |
| 1778203837 | 23.33° C | 85% | 1017.1 hPa | 0 mm | - | - | - |
| 1778203820 | 22.78° C | 85% | 1016.2 hPa | 0 mm | - | - | - |
| 1778203237 | 23.33° C | 86% | 1017.1 hPa | 0 mm | - | - | - |
| 1778202910 | 22.78° C | 85% | 1016.3 hPa | 0 mm | - | - | - |
| 1778202637 | 23.33° C | 85% | 1017.2 hPa | 0 mm | - | - | - |
| 1778202065 | 23.33° C | 85% | 1016.3 hPa | 0 mm | - | - | - |
| 1778202037 | 23.33° C | 85% | 1017.2 hPa | 0 mm | - | - | - |
| 1778201437 | 23.33° C | 84% | 1017.3 hPa | 0 mm | - | - | - |
| 1778201135 | 23.33° C | 84% | 1016.4 hPa | 0 mm | - | - | - |
| 1778200837 | 23.33° C | 85% | 1017.3 hPa | 0 mm | - | - | - |
| 1778200237 | 23.33° C | 85% | 1017.5 hPa | 0 mm | - | - | - |
| 1778200212 | 23.33° C | 85% | 1016.5 hPa | 0 mm | - | - | - |
| 1778199637 | 23.33° C | 84% | 1017.4 hPa | 0 mm | - | - | - |
| 1778199367 | 23.33° C | 83% | 1016.6 hPa | 0 mm | - | - | - |
| 1778199037 | 23.89° C | 83% | 1017.6 hPa | 0 mm | - | - | - |
| 1778198455 | 23.89° C | 82% | 1016.6 hPa | 0 mm | - | - | - |
| 1778198437 | 23.89° C | 82% | 1017.6 hPa | 0 mm | - | - | - |
| 1778197837 | 24.44° C | 82% | 1017.6 hPa | 0 mm | - | - | - |
| 1778197526 | 24.44° C | 82% | 1016.7 hPa | 0 mm | - | - | - |
| 1778197237 | 25° C | 79% | 1017.8 hPa | 0 mm | - | - | - |
| 1778196637 | 24.44° C | 81% | 1017.9 hPa | 0 mm | - | - | - |
| 1778196614 | 23.89° C | 81% | 1016.9 hPa | 0 mm | - | - | - |
| 1778196037 | 24.44° C | 81% | 1017.9 hPa | 0 mm | - | - | - |
* Rain latest hour (hover to see other rain measurements)
** Current wind speed in m/s (hover to see current wind gust speed)